7 * 24
多渠道服务支持
STARLINK-37320(NORAD编号68711)是美国SpaceX公司星链(Starlink)星座中的一颗低轨互联网卫星,归属星链第二代卫星组网序列。星链星座旨在构建全球覆盖的低轨宽带互联网系统,该卫星运行在近地轨道(典型轨道高度约550km),采用平板紧凑型设计,适配SpaceX一箭多星发射模式。作为星链大规模组网的组成部分,它将为全球用户提供低延迟(约25ms)、高带宽的卫星互联网接入服务,满足流媒体、远程通信等场景需求,延续了SpaceX星链低成本、高频次发射迭代的技术路线,支撑星座全球服务能力的持续拓展。
美国
(US)
| 数据来源 | 国际轨道数据 |
| 星历时间: | 2026-05-24T12:00:02+0800 1天前 查看轨道信息 |
| 半长轴: | 6796.862km |
| 偏心率: | 0.0000828 |
| 轨道倾角: | 53.166° |
| 近地点辐角 | 84.368° |
| 升交点赤经 | 43.999° |
| 平近点角 | 212.293° |
| 近地点: | 418.162km |
| 远地点: | 419.288km |
| 周期: | 92.944分钟 |
| 每日圈数: | 15.493164 |